SCP
0 0 0 0 0 0 0 1 1 0 0 0 0 0 0 0 0 0 0 0 0 0 0 0 0 0 0 0 0 0 0 0 0 0 0 0 0 0
0 0 0 0 0 0 0 0 0 0 0 0 0 0 0 0 0 0 0 0 0 0 0 0 0 0 0 0 0 0 0 0 0 0 0 0 0 0
0 0 0 0 0 0 0 0 0 0 0 0 0 0 0 0 0 0 0 0 0 0 0 0 0 0 0 0 0 0 0 0 0 0 0 0 0 0
0 0 0 0 0 0 0 0 0 0 0 0 0 0 0 0 0 0 0 0 0 0 0 0 0 0 0 0 0 0 0 0 0 0 0 0 0 0
0 0 0 0 0 0 0 0 0 0 0 0 0 0 0 0 0 0 0 0 0 0 0 0 0 0 0 0 0 0 0 0 0 0 0 0 0 0
0 0 0 0 0 0 0 0 0 0 0 0 0 0 0 0 0 0 0 0 0 0 0 0 0 0 0 0 0 0 0 0 0 0 0 0 0 0
0 0 0 0 0 0 0 0 0 0 0 0 0 0 0 0 0 0 0 0 0 0 0 0 0 0 0 0 0 0 0 0 0 0 0 0 0 0
0 0 0 0 0 0 0 0 0 0 0 0 0 0 0 0 0 0 0 0 0 0 0 0 0 0 0 0 0 0 0 0 0 0 0 0 0 0
0 0 0 0 0 0 0 0 0 0 0 0 0 0 0 0 0 0 0 0 0 0 0 0 0 0 0 0 0 0 0 0 0 0 0 0 0 0
0 0 0 0 0 0 0 0 0 0 0 0 0 0 0 0 0 0 0 0 0 0 0 0 0 0 0 0 0 0 0 0 0 0 0 0 0 0
0 0 0 0 0 0 0 0 0 0 0 0 0 0 0 0 0 0 0 0 0 0 0 0 0 0 0 0 0 0 0 0 0 0 0 0 0 0
0 0 0 0 0 0 0 0 0 0 0 0 0 0 0 0 0 0 0 0 0 0 0 0 0 0 0 0 0 0 0 0 0 0 0 0 0 0
0 0 0 0 0 0 0 0 0 0 0 0 0 0 0 0 0 0 0 0 0 0 0 0 0 0 0 0 0 0 0 0 0 0 0 0 0 0
0 0 0 0 0 0 0 0 0 0 0 0 0 0 0 0 0 0 0 0 0 0 0 0 0 0 0 0 0 0 0 0 0 0 0 0 0 0
0 0 0 0 0 0 0 0 0 0 0 0 0 0 0 0 0 0 0 0 0 0 0 0 0 0 0 0 0 0 0 0 0 0 0 0 0 0
0 0 0 0 0 0 0 0 0 0 0 0 0 0 0 0 0 0 0 0 0 0 0 0 0 0 0 0 0 0 0 0 0 0 0 0 0 0
0 0 0 0 0 0 0 0 0 0 0 0 0 0 0 0 0 0 0 0 0 0 0 0 0 0 0 0 0 0 0 0 0 0 0 0 0 0
0 0 0 0 0 0 0 0 0 0 0 0 0 0 0 0 0 0 0 0 0 0 0 0 0 0 0 0 0 0 0 0 0 0 0 0 0 0
0 0 0 0 0 0 0 0 0 0 0 0 0 0 0 0 0 0 0 0 0 0 0 0 0 0 0 0 0 0 0 0 0 0 0 0 0 0
0 0 0 0 0 0 0 0 0 0 0 0 0 0 0 0 0 0 0 0 0 0 0 0 0 0 0 0 0 0 0 0 0 0 0 0 0 0
0 0 0 0 0 0 0 0 0 0 0 0 0 0 0 0 0 0 0 0 0 0 0 0 0 0 0 0 0 0 0 0 0 0 0 0 0 0
0 0 0 0 0 0 0 0 0 0 0 0 0 0 0 0 0 0 0 0 0 0 0 0 0 0 0 0 0 0 0 0 0 0 0 0 0 0
0 0 0 0 0 0 0 0 0 0 0 0 0 0 0 0 0 0 0 0 0 0 0 0 0 0 0 0 0 0 0 0 0 0 0 0 0 0
Wind_Speed
4 5 4 4 3 4 3 4 5 6 6 3 2 2 2 2 2 2 3 4 5 5 5 6 6 6 6 7 8 9 9 9 9 9 9 10 11 11
3 4 4 4 3 3 4 4 5 6 7 3 2 2 1 1 2 2 3 4 4 5 5 6 6 6 6 7 7 8 9 9 9 9 10 11 11 12
3 3 4 4 4 4 3 4 4 5 7 5 2 1 2 2 2 2 2 3 3 4 5 6 6 6 6 7 8 8 9 9 10 10 10 11 11 12
4 4 5 3 4 4 3 4 4 4 5 7 4 2 3 2 2 2 2 2 3 4 5 6 6 6 7 7 7 8 8 9 9 9 10 11 12 12
4 4 5 4 5 4 4 4 4 3 3 4 4 2 2 1 2 2 2 2 3 4 5 5 6 7 7 7 7 8 8 8 9 10 10 11 12 12
5 4 5 4 5 4 4 4 4 4 4 4 4 3 3 2 1 2 3 2 3 3 3 4 5 6 7 7 7 8 8 9 9 10 10 11 11 12
5 4 4 4 5 5 4 4 4 4 4 4 4 4 3 2 2 2 3 3 3 1 2 3 3 3 4 5 6 8 8 9 9 10 10 10 11 10
5 5 4 4 5 5 5 5 5 5 5 5 5 5 5 3 2 2 2 2 3 1 2 4 2 3 3 3 6 8 9 9 10 10 10 10 10 10
4 4 4 4 4 4 5 5 5 5 5 5 6 6 4 3 3 4 4 4 4 2 2 4 2 3 3 4 7 8 8 8 8 8 8 9 10 10
3 3 3 4 4 5 4 4 4 4 4 3 3 4 3 2 3 3 4 3 3 2 1 3 2 3 3 3 6 7 7 7 8 9 9 9 10 10
3 3 3 4 5 6 4 4 4 4 3 3 3 3 4 4 3 1 1 2 3 2 1 2 2 3 3 3 3 5 6 7 9 10 10 10 11 10
3 3 3 4 6 5 3 3 4 4 4 3 3 3 3 3 3 1 1 2 2 3 1 1 2 2 3 2 2 3 3 6 9 10 10 11 11 7
3 3 3 6 7 6 4 3 5 5 3 2 2 2 2 2 2 2 2 2 3 3 1 1 2 1 2 4 3 3 3 3 4 6 8 11 11 8
4 3 4 7 7 6 4 4 5 4 2 1 1 1 2 2 3 3 3 2 2 3 3 2 2 2 2 4 4 3 3 3 3 4 5 9 9 11
4 6 6 7 6 4 4 5 3 2 1 1 1 2 2 2 2 2 2 2 2 2 2 2 2 3 3 4 4 4 4 4 2 4 5 6 6 6
4 4 5 5 4 4 3 3 2 1 1 1 1 1 2 2 2 2 2 2 2 3 2 3 3 3 4 4 4 5 4 4 4 5 6 6 5 5
3 2 2 2 2 2 2 2 2 1 1 1 1 1 1 2 2 2 2 2 2 3 4 3 4 3 4 4 4 5 5 5 5 5 6 7 6 5
3 2 2 2 2 2 2 2 1 1 1 1 1 1 1 1 2 2 2 1 2 3 3 4 4 4 3 3 4 5 4 5 5 5 5 6 8 6
2 2 2 2 2 2 2 1 2 1 1 1 1 1 1 1 2 2 2 2 2 3 3 3 3 3 4 6 5 3 4 5 5 5 5 5 7 8
2 2 2 2 2 2 2 1 1 1 1 1 1 1 1 1 2 2 2 2 3 3 4 3 2 2 3 5 6 6 7 5 5 6 6 5 6 9
2 2 2 2 2 2 2 2 1 1 1 1 1 1 1 1 2 2 2 3 3 3 4 4 4 5 4 3 5 6 5 7 8 6 6 6 7 5
2 2 2 2 2 2 2 1 1 1 1 1 1 1 1 1 2 3 2 2 3 3 4 4 4 3 2 3 5 7 7 6 8 10 9 8 5 5
3 2 2 2 2 2 2 2 2 2 2 1 1 1 1 1 2 2 2 3 3 3 3 4 4 3 3 3 5 6 7 8 6 6 6 10 12 14
Wind_Direction
253 256 257 254 249 251 249 239 245 259 257 237 228 222 219 219 233 230 235 251 263 269 276 282 286 289 289 290 292 294 294 298 299 299 299 299 300 299
255 257 260 260 253 248 248 250 246 251 262 251 230 235 221 237 239 238 239 249 252 264 279 285 287 293 294 291 290 291 294 296 297 297 296 297 298 299
297 276 271 270 263 260 255 253 250 246 257 267 253 253 218 235 257 253 251 249 250 260 276 281 284 292 293 291 292 294 295 296 297 297 297 298 299 298
310 299 281 281 275 268 263 260 256 251 254 265 263 256 251 239 247 255 266 273 265 269 273 275 285 291 293 293 296 300 301 301 302 301 301 300 301 301
301 299 300 291 275 270 266 266 267 271 263 259 265 260 258 253 267 267 266 263 273 276 275 276 283 285 287 289 294 298 299 301 302 302 302 303 302 302
303 301 302 302 297 297 284 279 277 273 268 259 260 261 255 258 254 264 278 269 273 283 277 282 283 283 284 288 292 293 296 300 302 304 305 304 303 303
312 315 314 317 317 304 294 290 280 269 266 262 258 259 252 252 253 258 268 285 277 263 284 277 275 270 266 275 281 286 294 300 303 305 305 304 304 305
315 314 313 317 321 310 302 298 288 275 270 265 260 257 258 257 258 258 265 280 276 276 290 283 273 272 270 263 285 293 295 301 306 307 305 307 309 313
316 320 325 329 321 316 315 312 302 288 273 269 267 267 272 272 261 252 249 255 258 273 295 274 268 271 274 284 289 293 299 308 317 321 320 318 318 318
319 318 320 324 331 329 322 319 313 307 304 286 274 282 289 294 273 266 265 273 276 267 235 262 272 275 289 279 281 292 304 314 320 322 322 321 320 318
321 325 324 320 325 329 325 316 311 310 326 316 306 310 321 323 321 303 267 266 278 266 238 250 275 299 290 271 278 297 310 316 319 321 321 321 319 317
308 306 304 311 313 323 316 307 305 311 319 324 327 334 333 340 351 321 265 253 267 268 254 270 269 314 300 282 290 300 305 310 315 318 318 319 320 318
302 307 304 310 309 310 310 298 294 305 304 306 318 336 354 1 360 353 335 277 261 262 285 312 279 283 267 293 302 296 299 306 309 310 313 314 314 315
299 303 302 310 312 314 314 310 311 315 308 310 323 338 350 349 349 348 345 337 307 278 286 292 268 268 279 283 285 297 304 302 305 308 311 310 310 310
295 297 304 309 313 315 313 314 321 321 310 310 315 320 329 327 338 343 345 341 325 306 298 298 279 275 265 267 278 287 302 302 298 311 311 309 303 307
295 293 292 299 305 307 312 319 313 303 292 288 312 320 335 345 351 344 331 333 331 325 330 323 304 282 275 272 271 280 290 292 308 309 305 300 298 292
298 300 296 302 304 304 313 318 317 328 330 323 314 324 344 346 339 344 336 340 325 313 323 331 319 296 266 264 273 276 287 294 299 308 309 302 296 292
290 271 275 279 281 285 293 306 320 331 334 335 331 322 324 328 331 337 340 334 321 317 318 322 332 334 327 294 251 274 288 293 304 307 306 301 298 298
264 261 265 270 277 279 280 287 298 310 319 321 321 320 321 320 315 317 326 327 317 310 310 319 331 332 319 308 303 303 302 305 310 305 301 294 292 299
259 253 261 268 271 269 273 279 286 300 312 312 310 306 305 303 301 300 303 301 304 308 311 315 320 312 290 287 292 297 305 298 301 302 302 301 294 301
261 261 262 265 267 263 262 265 266 267 260 258 264 274 281 290 288 288 290 295 296 298 302 302 304 301 283 285 288 290 298 312 313 303 305 310 313 312
261 261 268 271 266 261 259 258 263 256 242 241 248 252 257 261 268 276 281 289 289 286 289 298 309 315 304 289 290 295 303 310 318 319 311 303 303 302
257 256 258 257 259 255 249 244 243 251 246 237 241 246 248 263 269 270 275 279 285 292 302 308 316 315 296 282 286 293 301 309 315 321 316 321 317 305